This is the latest recevied weather packets stored in our database for station/object W4KAB. If no packets are shown the sender has not sent any weather packets the latest 10 day(s).
| Time | Temp. | Humidity | Pressure | Rain* | Wind** | Luminosity | Snow |
|---|---|---|---|---|---|---|---|
| 1777947680 | 19.44° C | 44% | 1015.9 hPa | 0 mm | - | 0 W/m² | - |
| 1777947376 | 19.44° C | 46% | 1015.8 hPa | 0 mm | - | 0 W/m² | - |
| 1777947073 | 19.44° C | 46% | 1015.8 hPa | 0 mm | - | 0 W/m² | - |
| 1777946768 | 19.44° C | 46% | 1016 hPa | 0 mm | - | 0 W/m² | - |
| 1777946465 | 18.89° C | 46% | 1015.8 hPa | 0 mm | - | 0 W/m² | - |
| 1777946162 | 18.89° C | 46% | 1016 hPa | 0 mm | - | 0 W/m² | - |
| 1777945859 | 18.89° C | 48% | 1016 hPa | 0 mm | - | 0 W/m² | - |
| 1777945555 | 18.89° C | 47% | 1015.8 hPa | 0 mm | - | 0 W/m² | - |
| 1777945253 | 18.89° C | 49% | 1015.7 hPa | 0 mm | - | 0 W/m² | - |
| 1777944950 | 17.78° C | 51% | 1015.7 hPa | 0 mm | - | 0 W/m² | - |
| 1777944647 | 17.78° C | 51% | 1015.6 hPa | 0 mm | - | 0 W/m² | - |
| 1777944345 | 17.78° C | 52% | 1015.6 hPa | 0 mm | - | 0 W/m² | - |
| 1777944042 | 18.33° C | 50% | 1015.6 hPa | 0 mm | - | 0 W/m² | - |
| 1777943737 | 18.33° C | 51% | 1015.4 hPa | 0 mm | - | 0 W/m² | - |
| 1777943435 | 18.33° C | 50% | 1015.6 hPa | 0 mm | - | 0 W/m² | - |
| 1777943130 | 18.89° C | 50% | 1015.5 hPa | 0 mm | - | 0 W/m² | - |
| 1777942827 | 18.89° C | 49% | 1015.5 hPa | 0 mm | - | 0 W/m² | - |
| 1777942523 | 19.44° C | 48% | 1015.5 hPa | 0 mm | - | 0 W/m² | - |
| 1777942221 | 20.56° C | 46% | 1015.4 hPa | 0 mm | - | 0 W/m² | - |
| 1777941918 | 20.56° C | 43% | 1015.5 hPa | 0 mm | - | 0 W/m² | - |
| 1777941614 | 20.56° C | 42% | 1015.4 hPa | 0 mm | - | 0 W/m² | - |
| 1777941311 | 20.56° C | 43% | 1015.3 hPa | 0 mm | - | 0 W/m² | - |
| 1777941009 | 20.56° C | 43% | 1015.2 hPa | 0 mm | - | 0 W/m² | - |
| 1777940704 | 20.56° C | 44% | 1015.3 hPa | 0 mm | - | 0 W/m² | - |
| 1777940403 | 20.56° C | 43% | 1015 hPa | 0 mm | - | 0 W/m² | - |
* Rain latest hour (hover to see other rain measurements)
** Current wind speed in m/s (hover to see current wind gust speed)